,,PA_Meas_PMT16A,,PR_Meas_QMR101_102,,RH_Meas_QMH101,,SR_Meas_QMS101,,TA_Meas_QMH101,,GenWind,,GenWind,
time,status,PA,status,PR,status,RH,status,SR,status,TA,status,DirAvg,status,SpdAvg,
2017-02-06, 00:00:04,VALID,915.769,VALID,0,VALID,72.6054,VALID,249.801,VALID,24.1817,VALID,235,VALID,0,
2017-02-06, 00:01:04,VALID,915.74,VALID,0,VALID,74.0081,VALID,187.485,VALID,24.1622,VALID,358,VALID,0,
2017-02-06, 00:02:04,VALID,915.693,VALID,0,VALID,72.2395,VALID,147.624,VALID,24.2013,VALID,268,VALID,0,
2017-02-06, 14:34:04,VALID,918.474,VALID,0,VALID,103.381,VALID,118.615,VALID,19.7223,VALID,22,VALID,1.74258,
2017-02-06, 14:35:04,VALID,918.494,VALID,0,INVALID,110.532,VALID,120.549,VALID,19.7223,VALID,353,VALID,0.956641,
2017-02-06, 14:36:04,VALID,918.504,VALID,0,INVALID,110.875,VALID,123.88,VALID,19.7613,VALID,338,VALID,1.60352,
2017-02-06, 14:37:04,VALID,918.472,VALID,0,VALID,104,VALID,126.673,VALID,19.7808,VALID,16,VALID,1.71094,
2017-02-06, 14:38:04,VALID,918.535,VALID,0,INVALID,111.752,VALID,130.326,VALID,19.8198,VALID,334,VALID,1.57148,
2017-02-06, 14:39:04,VALID,918.535,VALID,0,INVALID,115.945,VALID,133.764,VALID,19.8393,VALID,354,VALID,0.783594,
2017-02-06, 14:40:04,VALID,918.586,VALID,0,INVALID,116.265,VALID,135.698,VALID,19.8978,VALID,333,VALID,0.580078,
2017-02-06, 14:41:04,VALID,918.594,VALID,0,INVALID,117.18,VALID,137.847,VALID,19.9173,VALID,337,VALID,0.208594,
2017-02-06, 14:42:04,VALID,918.579,VALID,0,VALID,103.206,VALID,140.211,VALID,19.9173,VALID,4,VALID,1.89063,
2017-02-06, 14:43:04,VALID,918.614,VALID,0,INVALID,114.138,VALID,142.897,VALID,19.9368,VALID,4,VALID,1.81406,
2017-02-06, 14:44:04,VALID,918.607,VALID,0,INVALID,120.122,VALID,147.839,VALID,19.9563,VALID,6,VALID,1.71055,
2017-02-06, 14:45:04,VALID,918.609,VALID,0,INVALID,116.593,VALID,151.599,VALID,19.9548,VALID,5,VALID,1.9293,
2017-02-06, 14:46:04,VALID,918.629,VALID,0,INVALID,119.245,VALID,155.36,VALID,20.0148,VALID,15,VALID,1.37461,
2017-02-06, 14:47:04,VALID,918.601,VALID,0,INVALID,122.806,VALID,157.938,VALID,20.1139,VALID,357,VALID,1.09375,
2017-02-06, 14:48:04,VALID,918.625,VALID,0,INVALID,119.04,VALID,161.806,VALID,20.1529,VALID,355,VALID,0.967969,
2017-02-06, 14:49:04,VALID,918.662,VALID,0,VALID,103.587,VALID,164.492,VALID,20.2098,VALID,358,VALID,0.780859,
2017-02-06, 14:50:04,VALID,918.632,VALID,0,VALID,100.576,VALID,167.931,VALID,20.3269,VALID,357,VALID,0.222266,
2017-02-06, 14:51:04,VALID,918.641,VALID,0,VALID,104,VALID,169.22,VALID,20.4049,VALID,360,VALID,1.33867,
2017-02-06, 14:52:04,VALID,918.689,VALID,0,INVALID,109.762,VALID,171.906,VALID,20.4845,VALID,358,VALID,0.0121094,
2017-02-06, 14:53:04,VALID,918.673,VALID,0,VALID,99.3484,VALID,176.418,VALID,20.5024,VALID,293,VALID,0,
2017-02-06, 14:54:04,VALID,918.687,VALID,0,VALID,104,VALID,180.931,VALID,20.5999,VALID,336,VALID,0,
2017-02-06, 14:55:04,VALID,918.672,VALID,0,VALID,98.6927,VALID,184.047,VALID,20.717,VALID,15,VALID,0,
2017-02-06, 14:56:04,VALID,918.68,VALID,0,VALID,91.5115,VALID,184.584,VALID,20.8145,VALID,359,VALID,0.980469,
2017-02-06, 14:57:04,VALID,918.704,VALID,0,VALID,87.2271,VALID,189.311,VALID,20.873,VALID,313,VALID,0,
2017-02-06, 14:58:04,VALID,918.753,VALID,0,VALID,87.0442,VALID,188.774,VALID,20.9511,VALID,5,VALID,0,
2017-02-06, 14:59:04,VALID,918.762,VALID,0,VALID,85.3441,VALID,190.063,VALID,21.0681,VALID,5,VALID,0,
2017-02-06, 15:00:04,VALID,918.779,VALID,0,VALID,83.3849,VALID,193.072,VALID,21.125,VALID,351,VALID,1.10547,
2017-02-06, 15:01:04,VALID,918.806,VALID,0,VALID,87.6007,VALID,196.617,VALID,21.2242,VALID,10,VALID,0.739453,
2017-02-06, 15:02:04,VALID,918.84,VALID,0,VALID,86.1522,VALID,198.874,VALID,21.2616,VALID,16,VALID,1.08633,
2017-02-06, 15:03:04,VALID,918.887,VALID,0,VALID,84.2235,VALID,201.345,VALID,21.3201,VALID,5,VALID,0.266797,
2017-02-06, 15:04:04,VALID,918.921,VALID,0,VALID,83.0647,VALID,203.708,VALID,21.4193,VALID,262,VALID,0,
2017-02-06, 15:05:04,VALID,918.945,VALID,0,VALID,83.9719,VALID,205.75,VALID,21.4762,VALID,254,VALID,0,
2017-02-06, 15:06:04,VALID,918.96,VALID,0,VALID,84.963,VALID,207.791,VALID,21.6128,VALID,258,VALID,0,
2017-02-06, 15:07:04,VALID,918.957,VALID,0,VALID,81.6849,VALID,210.37,VALID,21.6908,VALID,6,VALID,0,
2017-02-06, 15:08:04,VALID,918.949,VALID,0,VALID,80.9683,VALID,214.023,VALID,21.6908,VALID,7,VALID,0,
2017-02-06, 15:09:04,VALID,919,VALID,0,VALID,81.5934,VALID,216.064,VALID,21.6908,VALID,359,VALID,0,
2017-02-06, 15:10:04,VALID,919.018,VALID,0,VALID,82.4244,VALID,217.246,VALID,21.7298,VALID,346,VALID,0,
2017-02-06, 15:11:04,VALID,919.044,VALID,0,VALID,80.1069,VALID,219.287,VALID,21.7672,VALID,345,VALID,0,
2017-02-06, 15:12:04,VALID,919.086,VALID,0,VALID,78.5136,VALID,222.618,VALID,21.7688,VALID,290,VALID,0,
2017-02-06, 15:13:04,VALID,919.09,VALID,0,VALID,79.5275,VALID,224.445,VALID,21.7282,VALID,27,VALID,0,
2017-02-06, 15:14:04,VALID,919.102,VALID,0,VALID,81.0903,VALID,227.453,VALID,21.7477,VALID,358,VALID,0,
2017-02-06, 15:15:04,VALID,919.137,VALID,0,VALID,79.7943,VALID,231.858,VALID,21.8274,VALID,10,VALID,0,
2017-02-06, 15:16:04,VALID,919.186,VALID,0,VALID,80.3813,VALID,236.478,VALID,21.8257,VALID,36,VALID,0.308203,
2017-02-06, 15:17:04,VALID,919.181,VALID,0,VALID,81.7383,VALID,239.164,VALID,21.9038,VALID,21,VALID,0.834766,
2017-02-06, 15:18:04,VALID,919.201,VALID,0,VALID,81.3723,VALID,240.991,VALID,21.9428,VALID,11,VALID,0,
2017-02-06, 15:19:04,VALID,919.194,VALID,0,VALID,78.7651,VALID,242.924,VALID,22.0242,VALID,359,VALID,0.745703,
2017-02-06, 15:20:04,VALID,919.207,VALID,0,VALID,80.7472,VALID,244.751,VALID,21.9623,VALID,5,VALID,0,
2017-02-06, 15:21:04,VALID,919.221,VALID,0,VALID,82.897,VALID,246.792,VALID,22.0013,VALID,18,VALID,0,
2017-02-06, 15:22:04,VALID,919.281,VALID,0,VALID,82.8132,VALID,250.123,VALID,22.0403,VALID,20,VALID,0,
2017-02-06, 15:23:04,VALID,919.286,VALID,0,VALID,83.0952,VALID,247.115,VALID,22.0387,VALID,350,VALID,1.36016,
2017-02-06, 15:24:04,VALID,919.251,VALID,0,VALID,80.2288,VALID,244.858,VALID,21.9428,VALID,5,VALID,1.96367,
2017-02-06, 15:25:04,VALID,919.287,VALID,0,VALID,82.0889,VALID,249.586,VALID,21.8452,VALID,356,VALID,1.20547,
2017-02-06, 15:26:04,VALID,919.304,VALID,0,VALID,82.7446,VALID,256.032,VALID,21.7867,VALID,11,VALID,1.00664,
2017-02-06, 15:27:04,VALID,919.322,VALID,0,VALID,81.4714,VALID,264.305,VALID,21.8452,VALID,23,VALID,1.13164,
2017-02-06, 15:28:04,VALID,919.313,VALID,0,VALID,80.8463,VALID,269.57,VALID,21.8631,VALID,9,VALID,1.90781,
2017-02-06, 15:29:04,VALID,919.351,VALID,0,VALID,82.6836,VALID,272.471,VALID,21.9054,VALID,4,VALID,0.2125,
2017-02-06, 15:30:04,VALID,919.375,VALID,0,VALID,81.197,VALID,277.306,VALID,21.8859,VALID,2,VALID,1.4918,
2017-02-06, 15:31:04,VALID,919.395,VALID,0,VALID,83.4078,VALID,281.926,VALID,21.9054,VALID,341,VALID,0.468359,
2017-02-06, 15:32:04,VALID,919.372,VALID,0,VALID,81.6544,VALID,280.851,VALID,22.0225,VALID,4,VALID,0,
2017-02-06, 15:33:04,VALID,919.377,VALID,0,VALID,81.967,VALID,282.14,VALID,22.1786,VALID,334,VALID,0,
2017-02-06, 15:34:04,VALID,919.419,VALID,0,VALID,80.6481,VALID,286.546,VALID,22.2176,VALID,9,VALID,0,
2017-02-06, 15:35:04,VALID,919.406,VALID,0,VALID,80.9302,VALID,291.595,VALID,22.2354,VALID,27,VALID,0.0554687,
2017-02-06, 15:36:04,VALID,919.407,VALID,0,VALID,80.671,VALID,297.29,VALID,22.255,VALID,345,VALID,0.903516,
2017-02-06, 15:37:04,VALID,919.389,VALID,0,VALID,80.8158,VALID,301.48,VALID,22.255,VALID,301,VALID,0.496094,
2017-02-06, 15:38:04,VALID,919.375,VALID,0,VALID,79.5199,VALID,309.216,VALID,22.2159,VALID,15,VALID,2.06211,
2017-02-06, 15:39:04,VALID,919.411,VALID,0,VALID,81.6849,VALID,316.629,VALID,22.1964,VALID,319,VALID,0.335547,
2017-02-06, 15:40:04,VALID,919.436,VALID,0,VALID,81.9746,VALID,329.2,VALID,22.294,VALID,2,VALID,0,
2017-02-06, 15:41:04,VALID,919.46,VALID,0,VALID,80.7243,VALID,339.621,VALID,22.372,VALID,37,VALID,0,
2017-02-06, 15:42:04,VALID,919.461,VALID,0,VALID,81.6849,VALID,343.382,VALID,22.4891,VALID,9,VALID,0.979688,
2017-02-06, 15:43:04,VALID,919.469,VALID,0,VALID,81.8984,VALID,344.564,VALID,22.4501,VALID,10,VALID,1.91484,
2017-02-06, 15:44:04,VALID,919.435,VALID,0,VALID,81.906,VALID,345.746,VALID,22.3703,VALID,6,VALID,2.01484,
2017-02-06, 15:45:04,VALID,919.44,VALID,0,VALID,80.8997,VALID,353.052,VALID,22.3508,VALID,30,VALID,1.04102,
2017-02-06, 15:46:04,VALID,919.423,VALID,0,VALID,80.6634,VALID,356.275,VALID,22.4094,VALID,192,VALID,0,
2017-02-06, 15:47:04,VALID,919.45,VALID,0,VALID,80.3432,VALID,356.812,VALID,22.6062,VALID,78,VALID,0,
2017-02-06, 15:48:04,VALID,919.417,VALID,0,VALID,79.5808,VALID,363.796,VALID,22.5884,VALID,333,VALID,0.915625,
2017-02-06, 15:49:04,VALID,919.431,VALID,0,VALID,79.9773,VALID,368.201,VALID,22.5299,VALID,272,VALID,0,
2017-02-06, 15:50:04,VALID,919.43,VALID,0,VALID,79.8782,VALID,372.176,VALID,22.4891,VALID,22,VALID,1.69609,
2017-02-06, 15:51:04,VALID,919.448,VALID,0,VALID,82.3786,VALID,377.226,VALID,22.5299,VALID,13,VALID,0.427734,
2017-02-06, 15:52:04,VALID,919.427,VALID,0,VALID,79.4055,VALID,379.804,VALID,22.4501,VALID,293,VALID,0,
2017-02-06, 15:53:04,VALID,919.431,VALID,0,VALID,81.9288,VALID,380.127,VALID,22.5672,VALID,19,VALID,0,
2017-02-06, 15:54:04,VALID,919.449,VALID,0,VALID,82.2872,VALID,385.391,VALID,22.7623,VALID,14,VALID,0,
2017-02-06, 15:55:04,VALID,919.421,VALID,0,VALID,79.8172,VALID,388.4,VALID,22.8972,VALID,12,VALID,0.893359,
2017-02-06, 15:56:04,VALID,919.437,VALID,0,VALID,79.6952,VALID,390.226,VALID,22.9948,VALID,6,VALID,0.782422,
2017-02-06, 15:57:04,VALID,919.444,VALID,0,VALID,78.7575,VALID,397.317,VALID,23.0924,VALID,18,VALID,0,
2017-02-06, 15:58:04,VALID,919.459,VALID,0,VALID,78.9328,VALID,406.665,VALID,23.1722,VALID,348,VALID,0.975781,
2017-02-06, 15:59:04,VALID,919.476,VALID,0,VALID,78.7651,VALID,414.186,VALID,23.1331,VALID,5,VALID,1.0957,
2017-02-06, 16:00:04,VALID,919.479,VALID,0,VALID,78.9176,VALID,412.896,VALID,23.2307,VALID,5,VALID,0,
2017-02-06, 16:01:04,VALID,919.463,VALID,0,VALID,77.1109,VALID,410.748,VALID,23.2698,VALID,20,VALID,2.20547,
2017-02-06, 16:02:04,VALID,919.464,VALID,0,VALID,76.6916,VALID,415.797,VALID,23.229,VALID,353,VALID,1.36094,
2017-02-06, 16:03:04,VALID,919.416,VALID,0,VALID,79.0167,VALID,417.409,VALID,23.2094,VALID,28,VALID,1.09961,
2017-02-06, 16:04:04,VALID,919.42,VALID,0,VALID,78.9252,VALID,417.087,VALID,23.2094,VALID,3,VALID,1.33516,
2017-02-06, 16:05:04,VALID,919.419,VALID,0,VALID,77.9266,VALID,422.566,VALID,23.1119,VALID,25,VALID,1.38945,
2017-02-06, 16:06:04,VALID,919.467,VALID,0,VALID,77.027,VALID,399.789,VALID,23.0941,VALID,24,VALID,2.44102,
2017-02-06, 16:07:04,VALID,919.471,VALID,0,VALID,78.3001,VALID,430.517,VALID,23.0143,VALID,10,VALID,1.65781,
2017-02-06, 16:08:04,VALID,919.464,VALID,0,VALID,78.384,VALID,433.74,VALID,22.9753,VALID,30,VALID,2.30156,
2017-02-06, 16:09:04,VALID,919.504,VALID,0,VALID,79.1158,VALID,443.517,VALID,23.0338,VALID,9,VALID,1.45547,
2017-02-06, 16:10:04,VALID,919.478,VALID,0,VALID,78.9405,VALID,444.162,VALID,23.0728,VALID,4,VALID,2.09023,
2017-02-06, 16:11:04,VALID,919.526,VALID,0,VALID,77.2404,VALID,447.17,VALID,23.0533,VALID,357,VALID,1.82187,
2017-02-06, 16:12:04,VALID,919.501,VALID,0,VALID,79.4589,VALID,449.641,VALID,23.0338,VALID,10,VALID,2.56914,
2017-02-06, 16:13:04,VALID,919.491,VALID,0,VALID,77.1795,VALID,448.244,VALID,22.9948,VALID,355,VALID,1.55469,
2017-02-06, 16:14:04,VALID,919.524,VALID,0,VALID,78.7194,VALID,448.459,VALID,22.7216,VALID,11,VALID,3.87695,
2017-02-06, 16:15:04,VALID,919.481,VALID,0,VALID,80.9683,VALID,376.581,VALID,22.6257,VALID,5,VALID,1.90234,
2017-02-06, 16:16:04,VALID,919.474,VALID,0,VALID,81.1513,VALID,451.253,VALID,22.6435,VALID,360,VALID,1.71406,
2017-02-06, 16:17:04,VALID,919.478,VALID,0,VALID,82.0508,VALID,456.088,VALID,22.8014,VALID,349,VALID,1.5668,
2017-02-06, 16:18:04,VALID,919.425,VALID,0,VALID,79.3064,VALID,458.022,VALID,22.8191,VALID,14,VALID,1.9625,
2017-02-06, 16:19:04,VALID,919.373,VALID,0,VALID,78.91,VALID,462.749,VALID,22.8759,VALID,28,VALID,2.5043,
2017-02-06, 16:20:04,VALID,919.431,VALID,0,VALID,80.2288,VALID,466.617,VALID,22.9735,VALID,9,VALID,1.71133,
2017-02-06, 16:21:04,VALID,919.423,VALID,0,VALID,77.4844,VALID,462.749,VALID,23.0924,VALID,12,VALID,1.66328,
2017-02-06, 16:22:04,VALID,919.389,VALID,0,VALID,76.8135,VALID,470.592,VALID,23.0321,VALID,7,VALID,1.46133,
2017-02-06, 16:23:04,VALID,919.36,VALID,0,VALID,78.6889,VALID,460.6,VALID,22.9345,VALID,20,VALID,4.47695,
2017-02-06, 16:24:04,VALID,919.428,VALID,0,VALID,80.0154,VALID,457.914,VALID,22.9735,VALID,13,VALID,3.21953,
2017-02-06, 16:25:04,VALID,919.436,VALID,0,VALID,79.0624,VALID,476.072,VALID,23.0516,VALID,2,VALID,1.63437,
2017-02-06, 16:26:04,VALID,919.358,VALID,0,VALID,78.6127,VALID,482.088,VALID,23.0728,VALID,45,VALID,2.57539,
2017-02-06, 16:27:04,VALID,919.407,VALID,0,VALID,79.6799,VALID,487.675,VALID,23.0906,VALID,6,VALID,1.83281,
2017-02-06, 16:28:04,VALID,919.345,VALID,0,VALID,78.1019,VALID,487.783,VALID,23.1491,VALID,11,VALID,2.69766,
2017-02-06, 16:29:04,VALID,919.339,VALID,0,VALID,79.314,VALID,491.006,VALID,23.2077,VALID,19,VALID,2.29063,
2017-02-06, 16:30:04,VALID,919.347,VALID,0,VALID,78.3001,VALID,491.006,VALID,23.229,VALID,313,VALID,2.17852,
2017-02-06, 16:31:04,VALID,919.369,VALID,0,VALID,75.388,VALID,499.172,VALID,23.2094,VALID,357,VALID,1.90898,
2017-02-06, 16:32:04,VALID,919.333,VALID,0,VALID,79.0777,VALID,499.494,VALID,23.2485,VALID,352,VALID,1.44844,
2017-02-06, 16:33:04,VALID,919.277,VALID,0,VALID,75.548,VALID,498.742,VALID,23.268,VALID,15,VALID,2.46016,
2017-02-06, 16:34:04,VALID,919.339,VALID,0,VALID,76.4857,VALID,503.469,VALID,23.1119,VALID,358,VALID,1.89219,
2017-02-06, 16:35:04,VALID,919.405,VALID,0,VALID,78.788,VALID,509.593,VALID,23.1704,VALID,24,VALID,1.98438,
2017-02-06, 16:36:04,VALID,919.35,VALID,0,VALID,77.9494,VALID,362.292,VALID,23.268,VALID,53,VALID,2.35508,
2017-02-06, 16:37:04,VALID,919.324,VALID,0,VALID,76.0207,VALID,522.057,VALID,23.3053,VALID,236,VALID,0.779688,
2017-02-06, 16:38:04,VALID,919.32,VALID,0,VALID,78.91,VALID,513.569,VALID,23.4046,VALID,19,VALID,2.39727,
2017-02-06, 16:39:04,VALID,919.304,VALID,0,VALID,77.8351,VALID,210.37,VALID,23.5998,VALID,34,VALID,1.02578,
2017-02-06, 16:40:04,VALID,919.333,VALID,0,VALID,77.5987,VALID,530.652,VALID,23.598,VALID,4,VALID,2.31836,
2017-02-06, 16:41:04,VALID,919.323,VALID,0,VALID,75.7158,VALID,523.668,VALID,23.637,VALID,18,VALID,2.61211,
2017-02-06, 16:42:04,VALID,919.334,VALID,0,VALID,77.3167,VALID,526.354,VALID,23.5217,VALID,13,VALID,2.77969,
2017-02-06, 16:43:04,VALID,919.367,VALID,0,VALID,78.0409,VALID,532.908,VALID,23.4028,VALID,50,VALID,2.14336,
2017-02-06, 16:44:04,VALID,919.375,VALID,0,VALID,77.2557,VALID,542.793,VALID,23.4614,VALID,16,VALID,3.15703,
2017-02-06, 16:45:04,VALID,919.357,VALID,0,VALID,79.0243,VALID,574.38,VALID,23.5395,VALID,10,VALID,1.9668,
2017-02-06, 16:46:04,VALID,919.423,VALID,0,VALID,74.5723,VALID,393.772,VALID,23.6175,VALID,318,VALID,2.11094,
2017-02-06, 16:47:04,VALID,919.41,VALID,0,VALID,80.0764,VALID,572.876,VALID,23.598,VALID,12,VALID,1.89336,
2017-02-06, 16:48:04,VALID,919.435,VALID,0,VALID,77.2481,VALID,240.668,VALID,23.5412,VALID,20,VALID,1.99375,
2017-02-06, 16:49:04,VALID,919.417,VALID,0,VALID,77.5759,VALID,572.446,VALID,23.4827,VALID,30,VALID,1.56719,
2017-02-06, 16:50:04,VALID,919.406,VALID,0,VALID,79.497,VALID,570.405,VALID,23.598,VALID,18,VALID,1.4957,
2017-02-06, 16:51:04,VALID,919.374,VALID,0,VALID,76.0664,VALID,573.521,VALID,23.6175,VALID,18,VALID,4.41641,
2017-02-06, 16:52:04,VALID,919.448,VALID,0,VALID,76.7297,VALID,606.828,VALID,23.6761,VALID,14,VALID,2.59844,
2017-02-06, 16:53:04,VALID,919.453,VALID,0,VALID,75.2126,VALID,434.814,VALID,23.6761,VALID,20,VALID,2.82656,
2017-02-06, 16:54:04,VALID,919.459,VALID,0,VALID,75.3194,VALID,185.336,VALID,23.5395,VALID,300,VALID,1.66367,
2017-02-06, 16:55:04,VALID,919.469,VALID,0,VALID,76.3638,VALID,619.828,VALID,23.4419,VALID,31,VALID,2.52656,
2017-02-06, 16:56:04,VALID,919.493,VALID,0,VALID,77.6902,VALID,583.298,VALID,23.4809,VALID,10,VALID,1.61914,
2017-02-06, 16:57:04,VALID,919.491,VALID,0,VALID,77.5759,VALID,202.204,VALID,23.4809,VALID,26,VALID,2.59844,
2017-02-06, 16:58:04,VALID,919.48,VALID,0,VALID,78.7194,VALID,622.192,VALID,23.5004,VALID,20,VALID,2.36836,
2017-02-06, 16:59:04,VALID,919.514,VALID,0,VALID,76.7983,VALID,238.949,VALID,23.4827,VALID,338,VALID,0.984766,
2017-02-06, 17:00:04,VALID,919.495,VALID,0,VALID,77.1032,VALID,656.788,VALID,23.3443,VALID,314,VALID,0.734375,
2017-02-06, 17:01:04,VALID,919.539,VALID,0,VALID,78.3992,VALID,283.322,VALID,23.4419,VALID,24,VALID,1.45859,
2017-02-06, 17:02:04,VALID,919.475,VALID,0,VALID,76.7373,VALID,179.749,VALID,23.4809,VALID,326,VALID,2.20859,
2017-02-06, 17:03:04,VALID,919.42,VALID,0,VALID,77.9037,VALID,442.228,VALID,23.3443,VALID,13,VALID,0.632422,
2017-02-06, 17:04:04,VALID,919.436,VALID,0,VALID,78.6203,VALID,233.255,VALID,23.2077,VALID,28,VALID,3.28867,
2017-02-06, 17:05:04,VALID,919.482,VALID,0,VALID,80.2822,VALID,695.252,VALID,23.1882,VALID,16,VALID,2.29961,
2017-02-06, 17:06:04,VALID,919.442,VALID,0,VALID,77.3853,VALID,463.394,VALID,23.1882,VALID,20,VALID,2.61875,
2017-02-06, 17:07:04,VALID,919.42,VALID,0,VALID,79.5656,VALID,730.815,VALID,23.2467,VALID,43,VALID,2.0418,
2017-02-06, 17:08:04,VALID,919.463,VALID,0,VALID,79.9773,VALID,462.749,VALID,23.4419,VALID,356,VALID,1.36172,
2017-02-06, 17:09:04,VALID,919.36,VALID,0,VALID,75.7844,VALID,682.789,VALID,23.598,VALID,14,VALID,1.31094,
2017-02-06, 17:10:04,VALID,919.368,VALID,0,VALID,77.7436,VALID,673.871,VALID,23.6548,VALID,18,VALID,1.98594,
2017-02-06, 17:11:04,VALID,919.302,VALID,0,VALID,75.792,VALID,697.293,VALID,23.8908,VALID,20,VALID,2.33047,
2017-02-06, 17:12:04,VALID,919.369,VALID,0,VALID,76.3866,VALID,719.533,VALID,23.9689,VALID,21,VALID,1.26172,
2017-02-06, 17:13:04,VALID,919.365,VALID,0,VALID,74.5113,VALID,241.42,VALID,24.0842,VALID,339,VALID,0.753906,
2017-02-06, 17:14:04,VALID,919.288,VALID,0,VALID,74.679,VALID,370.027,VALID,24.2403,VALID,19,VALID,1.96914,
2017-02-06, 17:15:04,VALID,919.298,VALID,0,VALID,75.0068,VALID,322.861,VALID,24.2617,VALID,25,VALID,1.7543,
2017-02-06, 17:16:04,VALID,919.255,VALID,0,VALID,72.6664,VALID,673.763,VALID,24.2031,VALID,8,VALID,3.71445,
2017-02-06, 17:17:04,VALID,919.28,VALID,0,VALID,74.9153,VALID,670.863,VALID,24.0256,VALID,1,VALID,3.31602,
2017-02-06, 17:18:04,VALID,919.334,VALID,0,VALID,74.801,VALID,289.984,VALID,24.0274,VALID,9,VALID,1.78242,
2017-02-06, 17:19:04,VALID,919.306,VALID,0,VALID,75.0906,VALID,457.27,VALID,24.1427,VALID,29,VALID,3.12305,
2017-02-06, 17:20:04,VALID,919.314,VALID,0,VALID,76.3409,VALID,562.24,VALID,24.2617,VALID,13,VALID,1.25312,
2017-02-06, 17:21:04,VALID,919.32,VALID,0,VALID,73.6422,VALID,300.298,VALID,24.3788,VALID,322,VALID,1.41016,
2017-02-06, 17:22:04,VALID,919.352,VALID,0,VALID,76.3561,VALID,738.873,VALID,24.3202,VALID,34,VALID,1.67813,
2017-02-06, 17:23:04,VALID,919.332,VALID,0,VALID,77.2023,VALID,715.88,VALID,24.3983,VALID,328,VALID,1.46523,
2017-02-06, 17:24:04,VALID,919.338,VALID,0,VALID,76.9736,VALID,691.921,VALID,24.5545,VALID,9,VALID,1.60547,
2017-02-06, 17:25:04,VALID,919.342,VALID,0,VALID,71.8812,VALID,679.565,VALID,24.5526,VALID,297,VALID,2.09531,
2017-02-06, 17:26:04,VALID,919.341,VALID,0,VALID,76.1274,VALID,685.475,VALID,24.4355,VALID,12,VALID,1.58555,
2017-02-06, 17:27:04,VALID,919.371,VALID,0,VALID,73.0704,VALID,681.177,VALID,24.455,VALID,25,VALID,0.950391,
2017-02-06, 17:28:04,VALID,919.358,VALID,0,VALID,75.4413,VALID,666.672,VALID,24.4941,VALID,24,VALID,2.49766,
2017-02-06, 17:29:04,VALID,919.403,VALID,0,VALID,71.4848,VALID,673.334,VALID,24.5722,VALID,312,VALID,2.56562,
2017-02-06, 17:30:04,VALID,919.36,VALID,0,VALID,74.2673,VALID,677.631,VALID,24.455,VALID,20,VALID,2.52227,
2017-02-06, 17:31:04,VALID,919.367,VALID,0,VALID,75.3575,VALID,676.235,VALID,24.5526,VALID,24,VALID,2.03281,
2017-02-06, 17:32:04,VALID,919.333,VALID,0,VALID,72.4758,VALID,676.987,VALID,24.5312,VALID,14,VALID,3.40664,
2017-02-06, 17:33:04,VALID,919.331,VALID,0,VALID,74.7476,VALID,662.16,VALID,24.3965,VALID,33,VALID,3.28242,
2017-02-06, 17:34:04,VALID,919.384,VALID,0,VALID,75.6548,VALID,633.366,VALID,24.5545,VALID,27,VALID,2.43828,
2017-02-06, 17:35:04,VALID,919.371,VALID,0,VALID,71.0807,VALID,603.175,VALID,24.6521,VALID,7,VALID,1.09219,
2017-02-06, 17:36:04,VALID,919.36,VALID,0,VALID,72.3996,VALID,537.098,VALID,24.7693,VALID,35,VALID,1.20391,
2017-02-06, 17:37:04,VALID,919.349,VALID,0,VALID,72.8722,VALID,431.699,VALID,24.984,VALID,35,VALID,1.35859,
2017-02-06, 17:38:04,VALID,919.354,VALID,0,VALID,70.974,VALID,323.398,VALID,25.275,VALID,353,VALID,1.15664,
2017-02-06, 17:39:04,VALID,919.381,VALID,0,VALID,71.2561,VALID,279.132,VALID,25.4722,VALID,271,VALID,0,
2017-02-06, 17:40:04,VALID,919.316,VALID,0,VALID,71.4238,VALID,283,VALID,25.5308,VALID,342,VALID,1.25156,
2017-02-06, 17:41:04,VALID,919.305,VALID,0,VALID,70.448,VALID,236.371,VALID,25.4703,VALID,44,VALID,2.11484,
2017-02-06, 17:42:04,VALID,919.303,VALID,0,VALID,71.3399,VALID,224.015,VALID,25.4312,VALID,11,VALID,2.94258,
2017-02-06, 17:43:04,VALID,919.326,VALID,0,VALID,73.6041,VALID,244.429,VALID,25.5093,VALID,32,VALID,2.10156,
2017-02-06, 17:44:04,VALID,919.306,VALID,0,VALID,68.748,VALID,227.345,VALID,25.5874,VALID,354,VALID,2.03242,
2017-02-06, 17:45:04,VALID,919.312,VALID,0,VALID,70.4327,VALID,232.288,VALID,25.3141,VALID,6,VALID,2.37266,
2017-02-06, 17:46:04,VALID,919.34,VALID,0,VALID,70.0287,VALID,242.495,VALID,25.2379,VALID,324,VALID,0.993359,
2017-02-06, 17:47:04,VALID,919.282,VALID,0,VALID,74.4808,VALID,244.966,VALID,25.3336,VALID,13,VALID,2.97617,
2017-02-06, 17:48:04,VALID,919.301,VALID,0,VALID,69.6018,VALID,261.297,VALID,25.4312,VALID,44,VALID,0,
2017-02-06, 17:49:04,VALID,919.311,VALID,0,VALID,70.0821,VALID,270.644,VALID,25.5093,VALID,317,VALID,0.821875,
2017-02-06, 17:50:04,VALID,919.302,VALID,0,VALID,70.7987,VALID,272.471,VALID,25.5698,VALID,20,VALID,2.57227,
2017-02-06, 17:51:04,VALID,919.271,VALID,0,VALID,70.3336,VALID,280.099,VALID,25.4507,VALID,18,VALID,3.14336,
2017-02-06, 17:52:04,VALID,919.21,VALID,0,VALID,70.4404,VALID,300.513,VALID,25.4703,VALID,31,VALID,2.98281,
2017-02-06, 17:53:04,VALID,919.211,VALID,0,VALID,67.6883,VALID,318.563,VALID,25.4136,VALID,10,VALID,2.81797,
2017-02-06, 17:54:04,VALID,919.277,VALID,0,VALID,68.3211,VALID,324.472,VALID,25.2164,VALID,326,VALID,2.01055,
2017-02-06, 17:55:04,VALID,919.211,VALID,0,VALID,70.3641,VALID,519.585,VALID,25.0212,VALID,188,VALID,0.970703,
2017-02-06, 17:56:04,VALID,919.212,VALID,0,VALID,73.3906,VALID,685.475,VALID,25.0602,VALID,80,VALID,0.583594,
2017-02-06, 17:57:04,VALID,919.148,VALID,0,VALID,72.0032,VALID,451.683,VALID,25.1988,VALID,350,VALID,1.71484,
2017-02-06, 17:58:04,VALID,919.126,VALID,0,VALID,67.4291,VALID,449.104,VALID,25.2945,VALID,352,VALID,3.34063,
2017-02-06, 17:59:04,VALID,919.181,VALID,0,VALID,69.7695,VALID,496.163,VALID,25.1579,VALID,306,VALID,1.47734,
2017-02-06, 18:00:04,VALID,919.159,VALID,0,VALID,70.5928,VALID,299.868,VALID,25.0993,VALID,7,VALID,3.01328,
2017-02-06, 18:01:04,VALID,919.114,VALID,0,VALID,71.2866,VALID,263.446,VALID,24.9431,VALID,1,VALID,1.45469,
2017-02-06, 18:02:04,VALID,919.096,VALID,0,VALID,70.1735,VALID,484.989,VALID,24.9626,VALID,18,VALID,2.54609,
2017-02-06, 18:03:04,VALID,919.083,VALID,0,VALID,71.3323,VALID,765.196,VALID,24.9645,VALID,355,VALID,2.54492,
2017-02-06, 18:04:04,VALID,919.078,VALID,0,VALID,70.3184,VALID,756.063,VALID,24.9236,VALID,6,VALID,3.50234,
2017-02-06, 18:05:04,VALID,919.024,VALID,0,VALID,68.0619,VALID,735.65,VALID,24.9431,VALID,14,VALID,2.70469,
2017-02-06, 18:06:04,VALID,919.004,VALID,0,VALID,70.1583,VALID,317.274,VALID,24.9236,VALID,48,VALID,1.40391,
2017-02-06, 18:07:04,VALID,919.011,VALID,0,VALID,68.4049,VALID,569.438,VALID,25.0974,VALID,32,VALID,2.6625,
2017-02-06, 18:08:04,VALID,919.047,VALID,0,VALID,70.631,VALID,326.729,VALID,25.2555,VALID,352,VALID,2.52266,